Flag for Germany Weather past 2 weeks in Sonneberg, Thuringia, Germany

Now
68 °F

Sunny.


Feels Like: 68 °F
Forecast: 46 / 68 °F
Wind: 8 mph from Southwest

Location: Hof

Current Time: Jun 3, 2015 at 11:49:21 AM

Latest Report: Jun 3, 2015 at 10:00 AM


Visibility: 4 mi

Pressure: 30.07 "Hg

Humidity: 55%

Dew point: 51 °F

Location of SonnebergLocation

Historic Weather in Sonneberg — Graph

°F

Sonneberg temperature yesterday

Maximum temperature yesterday: 71 °F (at 6:00 PM)
Minimum temperature yesterday: 51 °F (at 12:00 AM)
Average temperature yesterday: 61 °F

Past Weeks' High & Low Weather Summary

 TemperatureHumidityPressure
High71 °F (Jun 2, 6:00 PM)100% (May 21, 2:00 AM)30.38 "Hg (May 21, 2:00 AM)
Low36 °F (May 22, 6:00 AM)38% (May 22, 5:00 PM)29.72 "Hg (May 19, 10:00 AM)
Average53 °F70%30.04 "Hg
* Reported May 19 10:00 AM — Jun 3 10:00 AM, Sonneberg, Weather by CustomWeather, © 2015

Note: Actual official high and low records may vary slightly from our data, if they occured in-between our weather recording intervals... More about our weather records

Advertising

Sonneberg weather history for previous 24 hours

 ConditionsComfort  
Time TempWeatherWind HumidityBarometerVisibility
10:00 AM
Wed, Jun 3
68 °FSunny.8 mph55%30.07 "Hg4 mi
9:00 AM67 °FSunny.8 mph56%30.06 "Hg4 mi
8:00 AM65 °FSunny.6 mph60%30.06 "Hg9 mi
7:00 AM64 °FPartly sunny.5 mph62%30.05 "Hg3 mi
6:00 AM62 °FOvercast.3 mph64%30.05 "Hg7 mi
4:00 AM62 °FPassing clouds.5 mph63%30.04 "Hg28 mi
3:00 AM63 °FClear.5 mph59%30.04 "Hg28 mi
2:00 AM63 °FPassing clouds.3 mph58%30.04 "Hg28 mi
1:00 AM64 °FClear.5 mph57%30.04 "Hg28 mi
12:00 AM63 °FClear.3 mph60%30.03 "Hg28 mi
10:00 PM
Tue, Jun 2
65 °FClear.2 mph56%30.01 "Hg28 mi
9:00 PM67 °FPartly sunny.3 mph53%29.99 "Hg25 mi
8:00 PM69 °FSunny.6 mph47%29.97 "Hg25 mi
7:00 PM70 °FPartly sunny.6 mph45%29.96 "Hg19 mi
6:00 PM71 °FPassing clouds.7 mph39%29.97 "Hg14 mi
4:00 PM70 °FPassing clouds.8 mph39%29.97 "Hg12 mi
3:00 PM68 °FOvercast.7 mph50%29.98 "Hg13 mi
2:00 PM66 °FOvercast.6 mph54%29.99 "Hg19 mi
1:00 PM62 °FOvercast.7 mph60%30.01 "Hg19 mi
12:00 PM61 °FOvercast.6 mph65%30.03 "Hg22 mi
11:00 AM59 °FOvercast.5 mph67%30.04 "Hg16 mi
Weather by CustomWeather, © 2015

See weather overviewHow to use our weather pages